Flag for U.S.A. Weather past 2 weeks in Lakewood, New Jersey, U.S.A.

Now
79 °F

Sunny.


Feels Like: 80 °F
Forecast: 65 / 81 °F
Wind: 12 mph from East

Location: Belmar-Farmdale

Current Time: Aug 20, 2014 at 3:07:45 PM

Latest Report: Aug 20, 2014 at 2:35 PM


Visibility: 10 mi

Pressure: 29.99 "Hg

Humidity: 48%

Dew point: 57 °F

Location of LakewoodLocation

Historic Weather in Lakewood — Graph

°F

Lakewood temperature yesterday

Maximum temperature yesterday: 79 °F (at 12:15 PM)
Minimum temperature yesterday: 61 °F (at 4:55 AM)
Average temperature yesterday: 70 °F

Past Weeks' High & Low Weather Summary

 TemperatureHumidityPressure
High84 °F (Aug 5, 1:35 PM)88% (Aug 7, 12:15 AM)30.16 "Hg (Aug 7, 12:15 AM)
Low55 °F (Aug 15, 6:55 AM)37% (Aug 8, 4:35 PM)29.67 "Hg (Aug 13, 3:35 PM)
Average71 °F64%29.96 "Hg
* Reported Aug 5 1:15 PM — Aug 20 1:55 PM, Lakewood, Weather by CustomWeather, © 2014

Note: Actual official high and low records may vary slightly from our data, if they occured in-between our weather recording intervals... More about our weather records

Advertising

Lakewood weather history for previous 24 hours

 ConditionsComfort  
Time TempWeatherWind HumidityBarometerVisibility
1:55 PM
Aug 20
79 °FSunny.9 mph48%30.00 "Hg10 mi
1:35 PM79 °FSunny.8 mph48%30.00 "Hg10 mi
1:15 PM79 °FSunny.9 mph51%30.00 "Hg10 mi
12:55 PM79 °FPassing clouds.8 mph51%30.01 "Hg10 mi
12:35 PM79 °FPartly sunny.5 mph51%30.02 "Hg10 mi
12:15 PM77 °FScattered clouds.9 mph57%30.02 "Hg10 mi
11:55 AM77 °FPartly sunny.3 mph57%30.02 "Hg10 mi
11:35 AM77 °FSunny.No wind57%30.03 "Hg10 mi
11:15 AM75 °FSunny.5 mph61%30.03 "Hg10 mi
10:55 AM75 °FSunny.3 mph61%30.02 "Hg10 mi
10:35 AM75 °FSunny.7 mph57%30.02 "Hg10 mi
10:15 AM75 °FSunny.7 mph61%30.01 "Hg10 mi
9:55 AM75 °FSunny.8 mph61%30.01 "Hg10 mi
9:35 AM75 °FSunny.8 mph61%30.00 "Hg10 mi
9:15 AM73 °FPartly sunny.6 mph65%30.00 "Hg10 mi
8:55 AM73 °FPartly sunny.9 mph69%29.99 "Hg10 mi
8:35 AM73 °FOvercast.7 mph69%30.00 "Hg10 mi
7:55 AM70 °FPartly sunny.3 mph78%29.98 "Hg10 mi
7:35 AM68 °FPassing clouds.3 mph78%29.98 "Hg10 mi
7:15 AM66 °FPartly sunny.No wind83%29.98 "Hg10 mi
6:55 AM66 °FPassing clouds.No wind83%29.97 "Hg10 mi
6:35 AM64 °FOvercast.No wind83%29.97 "Hg10 mi
6:15 AM64 °FOvercast.No wind83%29.97 "Hg10 mi
5:55 AM64 °FOvercast.No wind83%29.96 "Hg10 mi
5:35 AM66 °FOvercast.No wind83%29.95 "Hg10 mi
5:15 AM64 °FOvercast.No wind83%29.95 "Hg10 mi
4:55 AM64 °FPassing clouds.No wind83%29.95 "Hg10 mi
4:35 AM64 °FPassing clouds.No wind83%29.95 "Hg10 mi
4:15 AM64 °FPassing clouds.No wind83%29.94 "Hg10 mi
3:55 AM66 °FPassing clouds.No wind83%29.94 "Hg10 mi
3:35 AM66 °FPassing clouds.No wind83%29.94 "Hg10 mi
3:15 AM64 °FOvercast.No wind83%29.95 "Hg10 mi
2:55 AM64 °FPassing clouds.5 mph78%29.95 "Hg10 mi
2:35 AM64 °FPassing clouds.No wind83%29.94 "Hg10 mi
2:15 AM66 °FPassing clouds.No wind83%29.94 "Hg10 mi
1:55 AM64 °FPassing clouds.No wind83%29.93 "Hg10 mi
1:35 AM66 °FClear.No wind78%29.95 "Hg10 mi
1:15 AM66 °FClear.No wind83%29.94 "Hg10 mi
12:55 AM66 °FClear.No wind83%29.94 "Hg10 mi
12:35 AM68 °FClear.No wind78%29.95 "Hg10 mi
12:15 AM68 °FPassing clouds.No wind78%29.94 "Hg10 mi
11:55 PM
Aug 19
68 °FPassing clouds.5 mph78%29.94 "Hg10 mi
11:35 PM70 °FClear.3 mph73%29.94 "Hg10 mi
11:15 PM70 °FClear.No wind73%29.94 "Hg10 mi
10:55 PM70 °FClear.3 mph73%29.93 "Hg10 mi
10:35 PM70 °FClear.3 mph78%29.93 "Hg10 mi
10:15 PM70 °FClear.5 mph78%29.93 "Hg10 mi
9:55 PM70 °FClear.5 mph73%29.92 "Hg10 mi
9:35 PM70 °FClear.5 mph73%29.92 "Hg10 mi
9:15 PM70 °FClear.6 mph73%29.92 "Hg10 mi
8:55 PM70 °FClear.5 mph73%29.92 "Hg10 mi
8:35 PM70 °FSunny.5 mph73%29.91 "Hg10 mi
8:15 PM72 °FSunny.5 mph69%29.91 "Hg10 mi
7:55 PM72 °FSunny.5 mph65%29.91 "Hg10 mi
7:35 PM73 °FSunny.5 mph61%29.90 "Hg10 mi
7:15 PM73 °FSunny.7 mph61%29.90 "Hg10 mi
6:55 PM75 °FSunny.7 mph57%29.90 "Hg10 mi
6:35 PM75 °FSunny.8 mph61%29.89 "Hg10 mi
6:15 PM75 °FSunny.6 mph57%29.90 "Hg10 mi
5:55 PM75 °FSunny.8 mph61%29.89 "Hg10 mi
5:35 PM77 °FSunny.8 mph57%29.90 "Hg10 mi
4:55 PM77 °FSunny.6 mph57%29.90 "Hg10 mi
4:35 PM77 °FPassing clouds.6 mph61%29.90 "Hg10 mi
4:15 PM77 °FScattered clouds.7 mph65%29.90 "Hg10 mi
3:55 PM75 °FBroken clouds.10 mph69%29.90 "Hg10 mi
3:35 PM75 °FBroken clouds.12 mph69%29.90 "Hg10 mi
3:15 PM75 °FCloudy.10 mph69%29.90 "Hg10 mi
Weather by CustomWeather, © 2014

See weather overviewHow to use our weather pages